TimeCDT,TemperatureF,Dew PointF,Humidity,Sea Level PressureIn,VisibilityMPH,Wind Direction,Wind SpeedMPH,Gust SpeedMPH,PrecipitationIn,Events,Conditions,WindDirDegrees,DateUTC
12:55 AM,3.2,-2.7,76,30.12,10.0,WNW,4.6,-,N/A,,Clear,290,2013-03-21 05:55:00
1:55 AM,1.8,-3.1,80,30.12,10.0,WNW,5.8,-,N/A,,Clear,290,2013-03-21 06:55:00
2:55 AM,3.0,-2.6,78,30.11,10.0,West,4.6,-,N/A,,Clear,280,2013-03-21 07:55:00
3:55 AM,2.7,-2.6,79,30.11,10.0,West,4.6,-,N/A,,Clear,280,2013-03-21 08:55:00
4:55 AM,3.7,-2.0,77,30.10,10.0,West,5.8,-,N/A,,Clear,270,2013-03-21 09:55:00
5:55 AM,0.9,-4.0,80,30.09,10.0,West,6.9,-,N/A,,Clear,280,2013-03-21 10:55:00
6:55 AM,1.4,-4.0,78,30.11,10.0,WNW,5.8,-,N/A,,Clear,290,2013-03-21 11:55:00
7:55 AM,1.4,-2.2,85,30.13,10.0,WNW,5.8,-,N/A,,Clear,290,2013-03-21 12:55:00
8:55 AM,8.6,1.4,73,30.12,10.0,WNW,9.2,-,N/A,,Clear,290,2013-03-21 13:55:00
9:55 AM,14.0,3.2,62,30.12,10.0,West,9.2,-,N/A,,Clear,280,2013-03-21 14:55:00
10:55 AM,17.6,5.0,58,30.12,10.0,WNW,8.1,-,N/A,,Clear,290,2013-03-21 15:55:00
11:55 AM,21.2,6.8,54,30.11,10.0,NW,8.1,-,N/A,,Clear,320,2013-03-21 16:55:00
12:55 PM,23.0,6.8,50,30.10,10.0,West,9.2,-,N/A,,Clear,260,2013-03-21 17:55:00
1:55 PM,23.0,8.6,54,30.09,10.0,West,9.2,-,N/A,,Clear,270,2013-03-21 18:55:00
2:55 PM,24.8,8.6,50,30.07,10.0,West,6.9,-,N/A,,Clear,260,2013-03-21 19:55:00
3:55 PM,26.6,8.6,47,30.06,10.0,West,9.2,-,N/A,,Clear,270,2013-03-21 20:55:00
4:55 PM,26.6,10.4,51,30.05,10.0,West,9.2,-,N/A,,Clear,280,2013-03-21 21:55:00
5:55 PM,25.5,10.2,52,30.05,10.0,West,6.9,-,N/A,,Clear,280,2013-03-21 22:55:00
6:55 PM,23.0,8.6,54,30.05,10.0,West,6.9,-,N/A,,Clear,280,2013-03-21 23:55:00
7:55 PM,17.6,6.8,63,30.06,10.0,WNW,8.1,-,N/A,,Clear,290,2013-03-22 00:55:00
8:55 PM,14.5,5.9,69,30.08,10.0,WNW,8.1,-,N/A,,Clear,290,2013-03-22 01:55:00
9:55 PM,12.2,5.0,73,30.08,10.0,West,5.8,-,N/A,,Clear,280,2013-03-22 02:55:00
10:55 PM,10.4,5.0,79,30.09,10.0,West,6.9,-,N/A,,Clear,270,2013-03-22 03:55:00
11:55 PM,11.7,4.3,72,30.09,10.0,West,5.8,-,N/A,,Clear,270,2013-03-22 04:55:00